User: anonymous   Login
Location: Grantham
(50.0698°N, 112.0083°W)
Time: 05:13:22
(UTC+00:00)
Language:

ISS - Orbit

View from above orbital plane
View from above orbital plane
View from above satellite
View from above satellite

Ground track
Ground track

The orbit data is extracted from the following two-line orbital elements,

1 25544U 98067A   22020.02292705  .00004295  00000-0  84466-4 0  9995
2 25544  51.6440 350.3242 0006876  40.2741  86.6290 15.49554822322201
Epoch (UTC): 20 January 2022 00:33:00
Eccentricity: 0.0006876
inclination: 51.6440°
perigee height: 413 km
apogee height: 423 km
right ascension of ascending node: 350.3242°
argument of perigee: 40.2741°
revolutions per day: 15.49554822
mean anomaly at epoch: 86.6290°
orbit number at epoch: 32220

The dashed part of the orbit path shows where the satellite is in the earth's shadow,  

DLR